Time,TemperatureF,DewpointF,PressureIn,WindDirection,WindDirectionDegrees,WindSpeedMPH,WindSpeedGustMPH,Humidity,HourlyPrecipIn,Conditions,Clouds,dailyrainin,SoftwareType,DateUTC
2013-05-11 00:06:00,62.2,48.6,29.21,West,260,0.0,0.0,61,0.00,,,0.00,VWS V14.01,2013-05-11 04:06:00,
2013-05-11 00:21:00,62.2,48.6,29.21,West,260,0.0,0.0,61,0.04,,,0.04,VWS V14.01,2013-05-11 04:21:00,
2013-05-11 00:36:00,62.2,48.6,29.21,West,260,0.0,0.0,61,0.04,,,0.04,VWS V14.01,2013-05-11 04:36:00,
2013-05-11 00:51:00,62.2,48.6,29.23,West,260,0.0,0.0,61,0.04,,,0.04,VWS V14.01,2013-05-11 04:51:00,
2013-05-11 01:06:00,60.8,50.6,29.23,West,260,0.0,0.0,69,0.04,,,0.04,VWS V14.01,2013-05-11 05:06:00,
2013-05-11 01:21:00,61.0,51.1,29.21,West,260,0.0,0.0,70,0.04,,,0.04,VWS V14.01,2013-05-11 05:21:00,
2013-05-11 01:36:00,61.0,51.1,29.21,West,260,0.0,0.0,70,0.00,,,0.04,VWS V14.01,2013-05-11 05:36:00,
2013-05-11 01:51:00,60.6,51.2,29.21,West,260,0.0,0.0,71,0.00,,,0.04,VWS V14.01,2013-05-11 05:51:00,
2013-05-11 02:06:00,60.6,51.2,29.21,West,260,0.0,0.0,71,0.00,,,0.04,VWS V14.01,2013-05-11 06:06:00,
2013-05-11 02:21:00,60.4,51.0,29.21,West,260,0.0,0.0,71,0.00,,,0.04,VWS V14.01,2013-05-11 06:21:00,
2013-05-11 02:36:00,60.4,51.4,29.21,West,260,0.0,0.0,72,0.00,,,0.04,VWS V14.01,2013-05-11 06:36:00,
2013-05-11 02:51:00,60.3,50.8,29.21,West,260,0.0,0.0,71,0.00,,,0.04,VWS V14.01,2013-05-11 06:51:00,
2013-05-11 03:06:00,60.1,51.0,29.21,West,260,0.0,0.0,72,0.00,,,0.04,VWS V14.01,2013-05-11 07:06:00,
2013-05-11 03:21:00,60.4,51.8,29.21,West,260,0.0,0.0,73,0.00,,,0.04,VWS V14.01,2013-05-11 07:21:00,
2013-05-11 03:36:00,60.6,51.9,29.21,West,260,0.0,0.0,73,0.00,,,0.04,VWS V14.01,2013-05-11 07:36:00,
2013-05-11 03:51:00,60.6,51.9,29.21,West,260,0.0,0.0,73,0.00,,,0.04,VWS V14.01,2013-05-11 07:51:00,
2013-05-11 04:06:00,60.6,51.9,29.21,West,260,0.0,0.0,73,0.00,,,0.04,VWS V14.01,2013-05-11 08:06:00,
2013-05-11 04:21:00,60.6,51.9,29.21,West,260,0.0,0.0,73,0.00,,,0.04,VWS V14.01,2013-05-11 08:21:00,
2013-05-11 04:36:00,60.6,51.9,29.21,WSW,250,0.0,0.0,73,0.00,,,0.04,VWS V14.01,2013-05-11 08:36:00,
2013-05-11 04:51:00,60.6,51.9,29.21,WSW,250,0.0,0.0,73,0.04,,,0.08,VWS V14.01,2013-05-11 08:51:00,
2013-05-11 05:06:00,60.6,51.9,29.21,WSW,250,0.0,0.0,73,0.08,,,0.12,VWS V14.01,2013-05-11 09:06:00,
2013-05-11 05:21:00,60.6,51.9,29.21,WSW,250,0.0,0.0,73,0.08,,,0.12,VWS V14.01,2013-05-11 09:21:00,
2013-05-11 05:36:00,60.6,51.9,29.18,WSW,250,0.0,0.0,73,0.12,,,0.16,VWS V14.01,2013-05-11 09:36:00,
2013-05-11 05:51:00,60.6,51.9,29.18,WSW,250,0.0,0.0,73,0.12,,,0.16,VWS V14.01,2013-05-11 09:51:00,
2013-05-11 06:06:00,60.6,51.9,29.18,WSW,251,0.0,0.0,73,0.08,,,0.16,VWS V14.01,2013-05-11 10:06:00,
2013-05-11 06:21:00,60.6,51.9,29.18,WSW,251,0.0,0.0,73,0.08,,,0.20,VWS V14.01,2013-05-11 10:21:00,
2013-05-11 06:36:00,60.6,51.9,29.18,WSW,251,0.0,0.0,73,0.12,,,0.24,VWS V14.01,2013-05-11 10:36:00,
2013-05-11 06:51:00,60.6,51.9,29.21,WSW,251,0.0,0.0,73,0.12,,,0.28,VWS V14.01,2013-05-11 10:51:00,
2013-05-11 07:06:00,60.1,52.1,29.21,WSW,251,0.0,0.0,75,0.20,,,0.35,VWS V14.01,2013-05-11 11:06:00,
2013-05-11 07:21:00,60.3,52.7,29.21,WSW,251,0.0,0.0,76,0.24,,,0.39,VWS V14.01,2013-05-11 11:21:00,
2013-05-11 07:36:00,60.1,52.5,29.21,WSW,251,0.0,0.0,76,0.20,,,0.39,VWS V14.01,2013-05-11 11:36:00,
2013-05-11 07:51:00,60.6,53.4,29.21,West,274,0.0,0.0,77,0.20,,,0.43,VWS V14.01,2013-05-11 11:51:00,
2013-05-11 08:06:00,60.3,52.7,29.18,West,274,0.0,0.0,76,0.16,,,0.43,VWS V14.01,2013-05-11 12:06:00,
2013-05-11 08:21:00,60.4,52.8,29.21,West,274,0.0,0.0,76,0.08,,,0.43,VWS V14.01,2013-05-11 12:21:00,
2013-05-11 08:36:00,61.2,54.3,29.21,West,274,0.0,0.0,78,0.04,,,0.43,VWS V14.01,2013-05-11 12:36:00,
2013-05-11 08:51:00,61.5,54.2,29.21,West,274,0.0,0.0,77,0.04,,,0.43,VWS V14.01,2013-05-11 12:51:00,
2013-05-11 09:06:00,61.5,54.2,29.21,West,274,0.0,0.0,77,0.00,,,0.43,VWS V14.01,2013-05-11 13:06:00,
2013-05-11 09:21:00,61.5,54.2,29.21,West,274,0.0,0.0,77,0.00,,,0.43,VWS V14.01,2013-05-11 13:21:00,
2013-05-11 09:36:00,61.5,54.2,29.21,West,274,0.0,0.0,77,0.00,,,0.43,VWS V14.01,2013-05-11 13:36:00,
2013-05-11 09:51:00,61.5,54.2,29.21,West,274,0.0,0.0,77,0.00,,,0.43,VWS V14.01,2013-05-11 13:51:00,
2013-05-11 10:06:00,64.2,57.6,29.21,West,274,0.0,0.0,79,0.00,,,0.43,VWS V14.01,2013-05-11 14:06:00,
2013-05-11 10:21:00,66.2,59.9,29.21,SE,136,0.0,0.0,80,0.00,,,0.43,VWS V14.01,2013-05-11 14:21:00,
2013-05-11 10:36:00,66.6,36.6,29.21,SSE,168,0.0,6.3,33,0.00,,,0.43,VWS V14.01,2013-05-11 14:36:00,
2013-05-11 10:51:00,67.1,36.3,29.21,SSE,150,3.6,4.0,32,0.00,,,0.43,VWS V14.01,2013-05-11 14:51:00,
2013-05-11 11:06:00,67.8,35.3,29.21,SE,143,2.7,4.9,30,0.00,,,0.43,VWS V14.01,2013-05-11 15:06:00,
2013-05-11 11:21:00,69.6,31.3,29.18,South,169,3.6,6.3,24,0.00,,,0.43,VWS V14.01,2013-05-11 15:21:00,
2013-05-11 11:36:00,70.0,31.6,29.18,South,182,4.9,8.1,24,0.00,,,0.43,VWS V14.01,2013-05-11 15:36:00,
2013-05-11 11:51:00,70.7,31.1,29.18,SSE,154,4.9,5.4,23,0.00,,,0.43,VWS V14.01,2013-05-11 15:51:00,
2013-05-11 12:06:00,71.2,31.6,29.18,East,79,0.0,8.1,23,0.00,,,0.43,VWS V14.01,2013-05-11 16:06:00,
2013-05-11 12:21:00,72.1,31.2,29.18,South,188,2.2,3.6,22,0.00,,,0.43,VWS V14.01,2013-05-11 16:21:00,
2013-05-11 12:36:00,72.5,31.5,29.18,SE,131,3.6,5.8,22,0.00,,,0.43,VWS V14.01,2013-05-11 16:36:00,
2013-05-11 12:51:00,72.0,31.1,29.18,SE,131,0.0,4.0,22,0.00,,,0.43,VWS V14.01,2013-05-11 16:51:00,
2013-05-11 13:06:00,72.3,30.2,29.18,South,180,2.2,4.5,21,0.00,,,0.43,VWS V14.01,2013-05-11 17:06:00,
2013-05-11 13:21:00,73.4,31.1,29.18,South,187,3.6,4.0,21,0.00,,,0.43,VWS V14.01,2013-05-11 17:21:00,
2013-05-11 13:36:00,72.9,30.7,29.15,SE,128,4.0,4.0,21,0.00,,,0.43,VWS V14.01,2013-05-11 17:36:00,
2013-05-11 13:51:00,70.7,30.0,29.18,North,353,2.7,6.3,22,0.00,,,0.43,VWS V14.01,2013-05-11 17:51:00,
2013-05-11 14:06:00,71.1,31.4,29.18,NNE,13,3.6,4.9,23,0.00,,,0.43,VWS V14.01,2013-05-11 18:06:00,
2013-05-11 14:21:00,70.9,31.3,29.15,NW,322,2.7,5.8,23,0.00,,,0.43,VWS V14.01,2013-05-11 18:21:00,
2013-05-11 14:36:00,70.2,30.7,29.15,NW,313,0.0,3.6,23,0.00,,,0.43,VWS V14.01,2013-05-11 18:36:00,
2013-05-11 14:51:00,69.8,30.4,29.15,NNW,329,2.2,4.9,23,0.00,,,0.43,VWS V14.01,2013-05-11 18:51:00,
2013-05-11 15:06:00,69.8,30.4,29.18,East,86,3.1,4.9,23,0.00,,,0.43,VWS V14.01,2013-05-11 19:06:00,
2013-05-11 15:21:00,68.4,32.2,29.18,WNW,294,3.1,4.9,26,0.00,,,0.43,VWS V14.01,2013-05-11 19:21:00,
2013-05-11 15:36:00,67.5,35.8,29.15,East,81,0.0,5.8,31,0.00,,,0.43,VWS V14.01,2013-05-11 19:36:00,
2013-05-11 15:51:00,66.9,35.3,29.18,SSE,147,2.7,5.8,31,0.00,,,0.43,VWS V14.01,2013-05-11 19:51:00,
2013-05-11 16:06:00,66.4,35.7,29.18,SSW,194,0.0,2.7,32,0.00,,,0.43,VWS V14.01,2013-05-11 20:06:00,
2013-05-11 16:21:00,66.4,35.7,29.15,North,357,0.0,3.6,32,0.00,,,0.43,VWS V14.01,2013-05-11 20:21:00,
2013-05-11 16:36:00,66.4,35.7,29.18,ENE,71,0.0,0.0,32,0.00,,,0.43,VWS V14.01,2013-05-11 20:36:00,
2013-05-11 16:51:00,66.4,35.7,29.18,ENE,76,0.0,3.1,32,0.00,,,0.43,VWS V14.01,2013-05-11 20:51:00,
2013-05-11 17:06:00,66.4,35.7,29.18,ENE,76,0.0,0.0,32,0.00,,,0.43,VWS V14.01,2013-05-11 21:06:00,
2013-05-11 17:21:00,66.4,35.7,29.18,SE,132,0.0,0.0,32,0.00,,,0.43,VWS V14.01,2013-05-11 21:21:00,
2013-05-11 17:36:00,66.4,35.7,29.18,South,178,0.0,0.0,32,0.00,,,0.43,VWS V14.01,2013-05-11 21:36:00,
2013-05-11 17:51:00,66.4,35.7,29.18,SE,143,0.0,0.0,32,0.00,,,0.43,VWS V14.01,2013-05-11 21:51:00,
2013-05-11 18:06:00,66.4,35.7,29.18,SE,143,0.0,0.0,32,0.00,,,0.43,VWS V14.01,2013-05-11 22:06:00,
2013-05-11 18:21:00,66.4,35.7,29.18,SE,143,0.0,0.0,32,0.00,,,0.43,VWS V14.01,2013-05-11 22:21:00,
2013-05-11 18:36:00,66.4,35.7,29.18,SE,143,0.0,0.0,32,0.00,,,0.43,VWS V14.01,2013-05-11 22:36:00,
2013-05-11 18:51:00,66.4,35.7,29.18,SE,143,0.0,0.0,32,0.00,,,0.43,VWS V14.01,2013-05-11 22:51:00,
2013-05-11 19:06:00,66.4,35.7,29.18,SE,143,0.0,0.0,32,0.00,,,0.43,VWS V14.01,2013-05-11 23:06:00,
2013-05-11 19:21:00,62.8,41.7,29.18,West,279,0.0,0.0,46,0.00,,,0.43,VWS V14.01,2013-05-11 23:21:00,
2013-05-11 19:36:00,62.6,42.1,29.18,South,189,0.0,0.0,47,0.00,,,0.43,VWS V14.01,2013-05-11 23:36:00,
2013-05-11 19:51:00,61.9,41.5,29.18,South,185,0.0,0.0,47,0.00,,,0.43,VWS V14.01,2013-05-11 23:51:00,
2013-05-11 20:06:00,61.7,41.3,29.18,SSW,208,0.0,0.0,47,0.00,,,0.43,VWS V14.01,2013-05-12 00:06:00,
2013-05-11 20:21:00,61.3,40.4,29.18,SSW,208,0.0,0.0,46,0.00,,,0.43,VWS V14.01,2013-05-12 00:21:00,
2013-05-11 20:36:00,61.0,39.5,29.21,SSW,198,0.0,0.0,45,0.00,,,0.43,VWS V14.01,2013-05-12 00:36:00,
2013-05-11 20:51:00,60.8,38.8,29.21,SSW,198,0.0,0.0,44,0.00,,,0.43,VWS V14.01,2013-05-12 00:51:00,
2013-05-11 21:06:00,60.4,38.4,29.21,SSW,198,0.0,0.0,44,0.00,,,0.43,VWS V14.01,2013-05-12 01:06:00,
2013-05-11 21:21:00,60.4,37.9,29.23,WNW,283,0.0,0.0,43,0.00,,,0.43,VWS V14.01,2013-05-12 01:21:00,
2013-05-11 21:36:00,60.1,36.3,29.23,SSW,197,0.0,0.0,41,0.00,,,0.43,VWS V14.01,2013-05-12 01:36:00,
2013-05-11 21:51:00,60.4,32.7,29.23,SSE,151,0.0,0.0,35,0.00,,,0.43,VWS V14.01,2013-05-12 01:51:00,
2013-05-11 22:06:00,60.4,28.9,29.23,SSE,150,0.0,4.0,30,0.00,,,0.43,VWS V14.01,2013-05-12 02:06:00,
2013-05-11 22:21:00,60.4,26.3,29.23,SE,124,2.7,10.1,27,0.00,,,0.43,VWS V14.01,2013-05-12 02:21:00,
2013-05-11 22:36:00,60.3,27.0,29.23,East,96,0.0,2.7,28,0.00,,,0.43,VWS V14.01,2013-05-12 02:36:00,
2013-05-11 22:51:00,58.8,28.3,29.23,SW,236,0.0,0.0,31,0.00,,,0.43,VWS V14.01,2013-05-12 02:51:00,
2013-05-11 23:06:00,58.5,28.0,29.26,SE,144,0.0,0.0,31,0.00,,,0.43,VWS V14.01,2013-05-12 03:06:00,
2013-05-11 23:21:00,57.7,30.3,29.26,South,185,0.0,0.0,35,0.00,,,0.43,VWS V14.01,2013-05-12 03:21:00,
2013-05-11 23:36:00,57.6,30.1,29.26,WNW,284,0.0,0.0,35,0.00,,,0.43,VWS V14.01,2013-05-12 03:36:00,
2013-05-11 23:51:00,57.7,28.1,29.26,South,180,0.0,2.7,32,0.00,,,0.00,VWS V14.01,2013-05-12 03:51:00,